Theta_e
293 293 293 293 293 291 291 291 290 288 287 288 289 290 290 292 296 298 298 297 299 303 298 297 297 297 298 299 300 301 300 302 301 304 306 304 304 303 304 303 303 303 302 302 301 299 299 298 299 300 299 300 302 301
292 292 292 293 292 292 291 291 290 288 288 287 289 289 291 291 296 297 297 297 297 301 298 297 296 296 297 298 299 301 301 301 303 302 303 302 303 303 301 303 301 301 301 299 300 300 299 297 297 296 296 299 299 299
292 292 292 293 292 292 291 291 290 289 288 287 288 289 290 291 296 296 297 297 299 301 299 297 297 297 297 299 299 301 302 301 302 302 303 303 304 302 301 301 300 302 300 300 300 300 299 298 298 297 296 297 298 297
292 292 292 293 292 292 292 291 290 289 288 288 287 288 290 290 295 296 297 296 298 300 304 298 297 297 298 298 299 300 301 301 301 303 304 303 302 301 301 300 302 301 300 299 299 299 299 298 298 298 298 298 298 298
292 292 292 293 293 292 292 291 290 289 288 288 287 287 290 291 294 297 297 296 295 299 302 299 297 298 298 298 299 300 300 302 302 304 303 302 302 301 300 298 301 300 300 300 301 299 299 299 298 298 299 298 298 297
292 292 292 293 293 293 292 292 290 289 289 288 287 287 291 294 296 297 297 297 294 297 302 303 298 298 298 298 299 299 300 301 302 304 302 300 301 301 300 300 298 298 298 299 299 299 299 298 298 298 299 298 297 298
292 292 292 293 293 293 293 292 291 289 289 288 287 288 291 294 296 297 297 293 293 297 302 302 298 298 298 298 299 300 300 301 301 302 301 299 299 300 301 299 297 298 298 298 298 298 298 298 298 298 298 297 297 297
292 292 292 292 293 293 293 292 291 290 289 288 287 291 292 295 296 299 295 291 295 299 301 301 299 300 298 299 301 299 300 300 302 300 300 299 298 297 298 296 296 297 297 297 297 297 297 297 296 297 297 297 297 297
292 292 292 292 293 293 293 293 292 291 289 288 290 293 295 296 294 297 292 293 296 298 303 299 298 300 298 300 299 301 300 303 299 301 298 298 297 297 296 296 296 297 297 297 297 297 297 297 296 297 297 298 298 298
291 292 292 292 292 293 293 293 292 291 289 289 294 291 295 294 293 294 297 296 295 296 302 301 297 299 298 301 300 300 300 300 300 298 299 300 297 297 296 296 297 297 297 297 297 296 297 297 296 297 297 297 297 297
292 292 292 292 292 292 293 293 292 291 291 293 292 295 296 293 297 297 297 300 300 299 299 298 297 298 298 300 300 299 301 299 299 299 298 297 298 298 297 297 297 297 297 297 297 297 297 296 297 297 297 297 296 297
292 292 292 292 292 292 293 294 293 293 293 291 295 294 295 297 297 297 297 296 297 298 298 298 299 297 298 297 300 299 298 298 297 298 298 297 301 297 297 297 297 297 297 297 297 297 297 297 296 296 296 296 296 296
292 292 292 292 292 292 293 294 293 294 292 294 294 295 296 297 297 295 295 295 298 298 298 298 298 298 298 297 298 297 296 297 298 300 298 298 300 298 297 297 298 297 297 297 296 296 296 296 297 297 297 296 297 296
292 292 292 293 292 292 293 294 293 292 294 296 295 295 295 297 295 296 296 298 299 299 298 299 300 299 298 298 297 296 296 296 296 297 298 302 300 298 298 297 297 297 296 296 296 296 296 297 297 297 297 298 297 298
292 292 293 293 293 292 294 294 293 292 295 296 296 296 295 296 297 297 297 299 299 299 299 298 299 299 298 298 297 296 295 295 296 296 298 299 299 298 297 297 297 297 296 296 296 296 297 297 297 297 297 298 298 296
292 292 293 293 293 293 294 294 292 294 295 296 296 296 297 297 300 298 297 298 299 299 298 298 299 298 297 297 297 296 295 295 296 298 301 298 298 298 297 297 297 297 296 296 297 297 297 297 297 296 296 297 297 294
293 294 294 293 293 293 294 292 293 294 296 296 297 297 298 299 300 299 298 298 298 298 298 298 299 297 297 298 297 297 297 298 301 301 298 298 298 298 297 297 297 296 296 297 297 296 296 296 296 296 296 297 297 297
293 294 294 293 293 293 292 292 295 296 296 296 298 299 298 299 299 300 299 297 298 298 298 297 297 296 297 296 297 299 300 302 302 299 299 298 298 297 297 297 297 297 297 297 297 297 296 296 296 297 297 297 297 296
294 295 294 293 293 293 291 291 293 297 296 297 298 298 299 299 298 298 298 297 296 297 298 297 297 297 297 298 299 300 300 301 301 301 299 298 297 297 297 297 297 297 297 297 297 296 296 296 296 296 296 295 295 293
294 295 294 293 293 292 294 295 294 296 297 298 297 298 299 300 299 299 299 299 298 298 298 297 298 298 299 298 298 298 299 298 299 301 300 299 297 297 297 298 298 298 297 297 297 295 296 295 295 295 294 293 292 291
294 294 294 293 293 292 295 296 296 296 297 297 298 299 299 299 301 301 301 300 300 299 298 299 300 300 298 298 298 298 298 297 299 299 299 300 298 297 297 297 297 297 297 298 298 297 295 295 295 295 294 292 291 290
294 293 292 291 291 291 293 294 297 297 298 298 299 299 299 301 301 301 301 301 300 300 300 300 300 300 300 300 299 298 298 298 298 298 297 297 298 297 297 297 297 298 298 299 299 297 296 295 294 295 293 291 290 289
293 292 292 291 294 294 296 296 298 298 298 298 298 298 298 299 299 298 300 300 300 300 300 299 299 298 299 299 299 299 298 299 299 298 298 298 297 297 297 298 298 299 299 299 298 296 295 294 293 293 292 290 289 288
292 291 294 294 296 297 296 298 297 297 297 298 298 298 298 299 298 299 300 300 300 300 300 299 299 300 299 300 300 299 299 299 298 298 298 298 298 298 297 297 297 297 298 298 297 296 294 293 292 291 290 289 287 286
294 294 295 296 296 297 297 297 298 298 298 297 297 298 299 299 299 298 298 299 300 300 301 299 300 300 301 301 300 300 299 299 298 298 298 298 298 298 297 297 297 298 298 298 296 295 293 292 291 290 289 288 287 286
296 295 297 298 298 297 297 298 298 298 297 298 297 298 299 298 298 298 298 297 298 300 299 300 301 302 301 300 300 300 300 299 298 298 298 298 298 298 298 298 299 299 298 297 296 294 293 291 290 289 288 287 286 285
298 298 297 297 298 297 297 298 297 298 298 299 298 299 299 299 299 299 297 297 298 300 301 300 300 300 301 301 301 300 299 299 299 298 298 298 298 298 297 298 298 299 298 295 295 295 293 291 289 288 288 287 286 285
298 299 298 297 299 298 298 298 298 298 298 298 298 298 299 299 300 298 297 297 297 298 300 301 301 301 301 300 300 299 299 298 297 297 297 296 296 297 297 297 297 298 297 296 294 294 293 292 289 288 287 287 286 284
298 299 299 298 298 299 299 299 299 298 298 298 298 298 298 297 302 300 298 297 297 299 300 301 301 301 301 300 299 299 298 297 295 294 294 295 295 295 296 296 297 297 295 294 294 293 292 290 288 287 287 286 285 284
298 299 299 299 298 299 299 299 300 299 299 298 298 298 298 299 297 296 297 297 299 299 299 298 296 295 295 295 294 296 296 295 295 294 294 294 294 294 293 295 296 295 294 293 293 290 289 288 288 287 287 286 285 283
298 299 299 299 299 299 301 299 297 299 299 299 298 299 298 298 298 297 297 297 296 295 295 294 293 293 292 292 292 292 292 292 293 293 293 293 293 293 293 293 294 294 293 292 290 288 288 287 287 286 286 285 284 283
298 299 299 299 299 297 297 297 298 299 299 299 299 298 298 297 298 298 297 296 297 294 294 294 293 293 294 294 293 293 293 294 293 293 292 292 292 292 293 293 293 292 290 289 289 287 287 287 286 286 286 285 284 283
297 299 299 299 297 297 296 298 298 298 299 298 299 299 298 298 298 298 297 297 296 295 295 295 295 295 294 294 294 293 293 293 293 293 293 293 292 292 292 292 292 291 289 289 288 287 286 286 286 286 285 285 284 284
Wind_Speed
20 17 13 10 8 7 6 5 6 8 9 11 12 14 15 14 13 11 10 12 10 4 11 15 16 16 13 14 9 14 7 17 10 12 9 7 9 11 7 16 11 14 6 7 6 6 9 23 13 9 6 8 11 13
21 18 14 11 10 8 6 5 5 6 7 10 10 13 15 13 11 12 8 9 6 4 6 12 14 16 15 14 8 9 9 11 5 5 8 5 8 7 15 7 12 10 8 6 8 5 3 10 9 10 11 7 13 14
22 19 15 12 10 8 7 5 4 4 5 8 10 12 13 12 13 12 12 11 6 5 4 12 11 14 14 11 9 7 6 10 10 3 3 6 7 10 9 11 9 6 13 11 2 10 11 13 11 13 14 13 11 13
24 20 16 13 11 9 7 4 3 2 4 6 9 10 12 11 10 12 12 13 7 5 1 7 14 15 13 14 14 11 2 16 14 6 5 6 8 10 12 10 14 9 6 7 10 14 6 14 13 12 11 12 17 17
25 21 17 14 12 10 7 5 2 2 3 4 8 9 11 10 6 8 6 10 9 4 3 4 13 13 12 13 15 15 15 9 5 8 8 6 3 7 11 10 13 11 12 8 7 11 7 7 10 12 13 14 15 16
26 22 19 16 13 10 8 5 3 3 1 3 7 9 8 9 9 4 6 6 11 7 2 3 5 11 9 13 9 14 13 6 8 5 7 10 17 4 6 12 14 14 15 11 11 10 11 10 10 13 11 12 17 16
27 23 20 17 13 10 9 7 4 2 2 3 6 7 6 9 7 4 3 6 7 7 2 4 2 5 11 11 11 6 10 4 4 4 7 9 10 7 8 10 11 11 10 9 10 8 9 11 10 15 16 18 19 19
27 24 21 18 15 12 9 8 5 2 2 3 6 4 5 6 4 2 4 8 6 2 3 2 2 3 8 3 3 8 4 4 5 4 5 7 7 4 6 12 11 12 13 12 11 12 11 12 14 14 17 15 14 14
29 25 22 19 16 13 10 8 6 2 2 4 4 5 3 3 3 3 9 4 4 2 3 2 2 2 7 3 2 2 3 2 2 3 5 4 4 4 7 7 8 8 9 8 9 10 11 11 12 12 13 11 12 12
30 26 23 20 18 14 11 9 7 3 2 4 3 3 3 2 6 4 3 5 3 2 2 3 1 2 4 4 3 3 3 1 2 2 2 3 3 2 4 5 4 5 6 8 9 10 10 11 10 11 11 11 11 12
30 26 24 21 18 16 13 10 8 4 3 1 2 0 3 4 1 3 2 1 2 1 3 2 2 2 3 3 3 3 2 3 3 3 4 1 3 6 4 3 2 2 4 7 8 8 9 10 9 7 9 10 12 11
30 27 24 22 19 18 15 12 10 5 1 1 0 1 2 2 0 1 2 2 4 2 4 3 3 2 3 1 2 2 2 2 3 3 2 3 4 7 6 4 2 2 4 5 7 9 10 12 12 11 10 11 9 12
31 28 25 23 21 19 17 14 13 4 4 2 2 1 2 1 2 4 5 3 3 4 5 4 4 1 3 2 1 2 2 3 6 2 2 2 5 5 4 2 2 2 4 5 8 10 10 11 11 13 13 13 8 9
31 30 27 24 22 20 18 15 14 8 1 2 2 3 5 4 5 5 5 5 4 5 7 5 4 2 1 0 0 2 2 2 2 2 4 3 7 4 2 2 3 4 5 8 10 13 13 10 10 11 13 10 9 5
32 30 27 24 23 21 19 16 14 7 2 3 4 4 6 6 3 3 2 2 2 6 5 3 3 3 2 0 2 2 2 3 4 2 2 4 3 3 3 4 4 6 9 10 12 14 13 11 10 12 12 9 1 4
32 25 25 25 24 23 20 17 12 3 3 3 5 5 5 4 4 3 4 5 4 5 4 1 3 1 3 2 4 5 3 4 2 1 2 1 2 3 4 5 7 7 9 11 11 13 13 13 12 14 13 6 4 1
35 13 26 29 27 24 23 13 7 6 4 4 5 6 7 4 5 6 7 7 10 6 5 3 4 5 3 3 4 4 4 4 3 2 2 2 3 4 6 7 6 8 10 11 11 12 13 13 13 14 13 5 3 3
22 22 29 32 30 29 11 7 5 5 7 7 6 6 7 7 5 5 7 11 6 7 8 6 3 8 5 4 6 6 4 3 2 2 3 4 5 6 7 8 9 10 11 11 12 12 12 13 14 10 11 7 2 5
27 30 34 37 36 14 7 6 6 4 8 6 8 7 6 5 11 11 9 11 12 8 5 4 6 7 10 8 7 6 5 5 3 4 5 9 9 8 9 10 11 11 12 12 11 10 11 11 12 9 7 6 5 6
28 32 35 42 37 7 5 4 7 5 4 5 7 8 9 8 7 7 7 8 7 6 6 6 8 8 6 6 7 7 6 6 4 4 5 6 12 12 12 12 12 12 12 12 11 6 7 7 7 5 2 5 6 7
30 29 42 44 18 11 4 4 6 4 5 5 6 7 6 6 7 7 7 9 8 9 9 9 8 8 15 15 16 14 13 12 7 7 7 6 11 13 13 13 13 12 10 9 8 7 4 6 9 6 3 3 1 3
20 39 15 17 6 10 4 10 5 7 4 3 7 8 5 7 6 7 6 9 11 10 9 10 10 10 10 14 18 21 19 18 16 15 16 16 10 10 11 12 11 11 10 10 10 6 7 6 7 5 4 5 1 0
35 20 10 6 4 8 4 16 7 5 8 6 5 6 5 5 4 6 4 7 9 15 17 20 23 24 23 25 24 23 21 19 17 16 16 16 17 16 15 14 13 12 11 12 11 7 7 7 7 7 6 3 1 1
18 10 6 8 8 6 6 7 7 7 7 10 8 5 7 6 4 5 9 9 8 15 16 23 22 12 20 22 16 22 22 21 20 19 19 16 14 15 16 16 15 16 16 14 12 11 10 7 9 10 8 8 7 6
9 8 6 9 8 9 8 9 9 7 6 12 17 10 4 6 6 7 9 3 8 10 11 20 19 16 12 11 16 18 19 19 18 15 18 18 18 15 15 17 18 16 15 14 12 11 15 15 14 13 11 11 8 7
9 9 11 14 10 9 9 10 13 8 8 14 11 8 8 4 6 6 5 9 11 8 9 11 11 10 11 20 11 13 15 18 19 17 18 17 18 17 15 12 12 15 18 17 17 18 19 18 17 14 13 12 11 9
9 11 7 7 8 10 7 10 9 12 11 10 11 8 9 10 8 4 3 10 8 17 18 22 23 20 15 16 18 19 19 18 20 20 18 17 18 20 21 17 17 16 19 20 18 22 24 21 18 18 16 15 12 12
8 10 15 17 11 10 13 13 13 14 11 7 10 13 8 9 6 4 4 9 19 20 19 21 22 22 21 20 19 17 18 19 16 12 15 16 15 18 20 22 19 20 19 22 24 23 23 23 21 20 20 17 15 14
7 10 10 13 16 10 12 14 14 9 9 10 16 16 9 9 2 3 9 12 7 14 16 16 16 17 18 17 18 18 22 22 17 7 9 6 6 20 21 19 20 21 23 23 23 23 24 22 21 21 22 19 16 15
11 10 11 13 15 16 13 8 10 11 8 9 11 11 11 5 19 21 19 14 16 18 19 18 17 18 14 14 12 17 22 24 27 22 9 9 18 23 22 26 24 25 26 26 26 22 19 20 20 19 21 20 20 17
7 10 8 10 13 14 3 5 3 7 9 8 8 11 14 10 11 21 27 26 25 21 14 13 15 16 16 17 18 14 12 29 31 33 35 30 21 20 20 23 32 31 30 28 27 25 25 24 23 22 23 22 21 20
9 11 12 13 8 4 6 6 6 8 8 8 12 8 5 5 15 11 25 29 24 16 24 26 20 23 36 37 34 33 30 24 28 32 35 35 34 28 24 23 24 28 29 27 26 26 27 26 24 25 25 25 24 25
4 6 6 7 4 8 5 7 7 9 7 8 10 11 13 15 19 9 23 37 37 35 34 38 45 46 43 39 40 41 39 34 31 32 33 29 27 28 27 27 27 29 31 29 28 28 29 30 27 27 27 26 27 27
Wind_Direction
172 170 164 160 158 141 116 87 66 56 41 38 28 31 37 44 50 52 49 24 12 357 47 30 23 20 10 8 6 334 358 10 6 22 22 18 23 18 44 31 13 21 39 23 35 41 22 345 1 49 322 321 353 8
176 173 167 166 161 152 134 105 76 60 39 36 28 30 25 40 53 42 37 14 355 318 54 39 46 38 22 27 354 13 31 9 13 5 18 28 31 28 25 38 12 47 48 60 38 57 10 360 17 6 9 11 19 17
176 175 170 170 165 161 146 119 85 62 42 30 26 27 19 37 55 45 20 9 358 310 44 38 27 34 29 23 23 5 9 5 7 117 337 24 60 30 35 24 36 68 31 46 63 53 34 23 22 25 22 24 32 30
179 177 175 174 170 167 150 135 99 76 44 23 26 19 10 29 65 43 34 20 23 328 310 62 40 45 33 30 25 45 219 43 23 33 42 48 51 47 58 47 45 31 42 60 59 25 48 32 22 22 22 22 25 24
180 180 179 177 175 173 159 153 125 100 38 17 18 7 5 23 62 28 25 33 29 358 343 10 41 39 43 31 40 38 40 44 45 47 40 42 112 72 55 56 51 41 46 42 50 45 46 42 35 27 35 35 37 27
182 181 180 181 178 175 170 168 160 103 37 19 9 358 18 52 37 19 34 45 19 4 315 345 95 33 28 48 36 47 56 18 43 30 64 48 35 78 69 67 64 57 63 74 73 73 57 47 50 59 46 36 42 36
183 182 183 182 179 176 176 181 166 125 42 24 356 355 51 53 42 56 31 320 3 350 304 310 67 61 352 67 21 46 51 32 44 23 71 76 74 72 73 77 90 89 81 77 74 63 61 65 47 43 30 38 34 44
184 184 185 184 182 181 178 184 174 168 33 26 353 6 61 51 33 42 357 7 34 342 269 313 360 50 0 31 39 12 38 38 13 53 86 77 60 44 62 59 48 63 68 55 54 57 53 52 69 60 42 31 35 28
186 186 187 187 186 185 183 183 183 180 45 25 42 32 345 38 13 39 332 348 349 305 299 266 336 59 330 350 72 34 350 37 73 30 40 70 66 57 66 66 63 51 44 59 56 30 38 41 33 34 40 30 35 28
187 188 189 189 189 188 188 186 184 179 67 60 13 40 12 290 300 334 351 3 8 297 236 272 275 92 344 324 41 15 332 276 220 80 162 179 123 97 105 96 80 34 24 18 29 28 26 24 31 14 24 19 27 39
188 188 190 190 191 189 190 187 183 150 71 337 54 144 36 342 268 356 324 298 215 238 206 221 25 6 83 357 347 22 307 315 302 90 343 265 149 176 172 114 88 47 20 13 3 13 15 4 7 13 6 17 11 17
189 188 190 190 190 190 189 188 171 151 125 178 325 203 13 292 169 318 248 233 228 218 174 193 142 20 98 289 301 23 313 322 302 349 323 284 127 156 186 179 253 342 338 338 342 356 358 339 353 342 350 353 11 355
190 190 192 190 191 190 191 188 173 152 142 98 12 209 200 163 229 215 187 211 222 172 157 158 140 237 153 184 301 279 316 265 328 351 260 352 133 177 213 182 228 285 297 317 328 335 330 335 330 335 335 329 349 339
189 189 189 189 190 190 191 184 183 165 231 204 197 211 212 187 240 212 236 198 184 171 159 169 114 177 128 211 58 250 302 315 278 251 253 241 163 167 171 120 299 290 306 306 322 325 327 337 323 304 282 288 301 310
188 188 187 189 190 190 188 184 178 171 258 238 225 235 216 235 263 274 303 56 167 148 152 124 115 171 167 135 246 258 243 258 236 241 307 53 102 160 196 229 251 295 312 314 320 319 317 316 325 316 314 252 201 100
185 184 191 190 189 188 183 175 168 204 249 239 237 243 250 269 226 209 238 228 193 164 172 129 114 158 212 229 197 206 228 230 232 168 68 337 209 215 236 251 265 294 308 310 306 311 317 323 323 318 307 293 197 273
179 185 187 186 185 182 184 145 170 203 226 232 233 237 267 257 216 220 233 231 171 195 186 171 198 206 197 218 221 213 218 285 20 89 222 208 248 256 255 264 284 293 299 303 304 307 314 316 311 300 300 93 140 231
181 184 182 177 174 166 173 169 210 213 223 231 247 233 227 243 247 229 211 230 178 211 213 214 231 205 206 224 224 236 226 230 300 279 275 252 235 248 264 274 282 290 297 303 305 303 306 306 309 321 348 336 346 36
178 179 177 175 172 160 155 201 216 227 212 231 223 243 243 225 230 240 228 215 217 208 224 235 231 234 231 243 261 278 293 303 252 222 231 261 265 260 263 270 280 282 284 287 290 302 304 319 316 324 357 22 11 20
178 177 175 183 177 152 187 199 201 236 217 207 225 237 234 234 230 221 224 233 218 214 219 223 229 239 251 258 271 284 280 270 269 235 236 251 266 267 258 250 254 263 276 286 289 284 277 297 303 297 351 353 349 13
174 175 180 182 189 196 231 179 197 215 207 202 209 224 243 233 219 234 228 214 222 215 220 228 243 246 254 267 271 271 273 271 265 272 273 255 246 261 265 267 263 253 264 280 269 277 281 290 289 252 237 173 164 358
173 163 154 180 173 191 228 216 238 177 188 194 192 209 236 226 226 226 235 231 228 229 224 229 237 246 250 249 251 254 257 260 263 265 269 274 269 263 263 267 276 279 270 266 265 251 264 275 286 245 195 177 243 97
154 157 152 144 183 202 224 182 199 198 191 183 182 197 212 216 207 195 234 226 233 230 233 236 241 245 252 258 262 262 256 250 249 250 252 249 253 257 260 250 238 236 250 258 256 231 227 218 226 206 197 183 189 239
144 148 164 182 207 194 172 190 200 190 213 200 194 213 207 196 201 216 246 232 222 213 223 231 235 243 247 248 246 247 246 244 248 249 249 248 250 249 245 252 245 238 236 236 229 228 205 199 195 193 206 242 259 273
149 172 192 203 187 182 179 174 183 190 192 197 208 210 185 204 222 231 238 214 212 223 223 221 227 229 236 243 248 249 242 231 234 240 240 235 237 242 245 244 244 233 224 213 205 205 185 190 196 198 215 235 225 222
193 186 200 189 177 188 179 182 187 182 183 196 213 208 208 202 232 235 227 227 230 222 218 217 223 228 233 235 242 240 233 227 229 238 241 234 226 223 230 233 236 221 215 211 205 198 187 194 199 203 214 225 230 228
195 193 192 206 172 184 186 189 177 191 199 194 193 183 194 226 233 228 211 218 229 225 220 216 219 226 236 238 237 236 231 227 225 233 240 238 237 231 225 227 231 235 213 208 213 213 200 192 198 206 207 213 223 218
197 200 193 181 192 181 191 177 185 194 198 171 173 197 200 207 215 189 213 249 236 222 215 212 214 223 232 236 237 229 219 221 222 225 223 230 237 238 232 232 242 231 218 208 212 217 212 209 202 204 205 210 213 214
210 192 172 192 196 192 199 200 199 191 180 187 194 205 214 215 174 162 209 203 225 204 211 213 218 224 225 226 225 219 211 204 178 178 208 218 225 230 219 226 229 216 209 207 214 219 214 206 198 199 202 203 205 203
199 181 188 181 197 210 207 194 203 199 196 201 214 224 230 218 210 220 226 203 195 202 206 213 218 210 205 195 203 209 214 218 211 202 202 214 224 238 228 215 216 210 211 209 207 204 196 193 191 193 198 195 200 198
179 183 191 197 213 215 176 165 122 174 201 207 211 220 226 225 228 222 219 227 235 231 218 216 221 212 207 206 206 202 222 227 227 230 232 237 241 235 232 225 222 218 212 206 205 198 192 191 191 190 191 194 202 202
183 188 194 197 199 124 142 173 186 202 193 206 220 214 191 203 231 223 219 219 213 204 227 232 225 230 239 240 237 234 236 240 238 239 239 235 235 236 232 226 218 213 208 199 196 196 193 193 195 197 197 200 207 205
169 192 187 196 146 165 176 180 204 223 204 217 221 213 215 222 232 222 220 224 220 220 226 233 244 250 247 244 246 248 249 249 249 248 249 245 241 237 226 218 214 211 205 198 197 196 196 197 199 203 204 203 208 209